Regional Weather Roundup
Issued by NWS

Home | Current Version | Previous Version | Text Only | Print | Product List | Glossary Off
Versions: 1 2 3 4 5 6 7 8 9 10 11 12 13 14 15 16 17 18 19 20 21 22 23 24 25 26 27 28 29 30 31 32 33 34 35 36 37 38 39 40 41 42 43 44 45 46 47 48 49 50

000
ASUS45 KPSR 070610
RWRAZ

ARIZONA HOURLY REGIONAL WEATHER ROUNDUP
NATIONAL WEATHER SERVICE PHOENIX AZ
1100 PM MST MON JUL 06 2015

NOTE: FAIR INDICATES FEW OR NO CLOUDS BELOW 12,000 FEET WITH NO
SIGNIFICANT WEATHER AND/OR OBSTRUCTIONS TO VISIBILITY.

AZZ001>003-036-070700-
NORTHWEST ARIZONA

CITY           SKY/WX    TMP DP  RH WIND       PRES   REMARKS
BULLHEAD CITY  PTCLDY    90  57  33 NW10      29.86S
KINGMAN        MOCLDY    75  57  53 N12       30.08R
6HR MIN TEMP:  72; 6HR MAX TEMP:  83; 6HR PCP: TRACE;

$$

AZZ004>008-015-016-018-070700-
NORTH CENTRAL ARIZONA

CITY           SKY/WX    TMP DP  RH WIND       PRES   REMARKS
GRAND CANYON   CLEAR     51  47  86 CALM      30.28S
6HR MIN TEMP:  50; 6HR MAX TEMP:  72;

WILLIAMS       CLEAR     55  52  88 SE6       30.35S
PRESCOTT       PTCLDY    67  56  67 SW3       30.17S
6HR MIN TEMP:  67; 6HR MAX TEMP:  82;

FLAGSTAFF      CLEAR     56  51  84 CALM      30.30S
6HR MIN TEMP:  56; 6HR MAX TEMP:  74;

PAYSON         PTCLDY    73  52  46 CALM      30.18S
PAGE           PTCLDY    71  57  61 CALM      30.10S
6HR MIN TEMP:  71; 6HR MAX TEMP:  84; 6HR PCP: TRACE;

$$

AZZ009>014-017-070700-
NORTHEAST ARIZONA

CITY           SKY/WX    TMP DP  RH WIND       PRES   REMARKS
WINSLOW        PTCLDY    68  53  58 W8        30.15S
6HR MIN TEMP:  68; 6HR MAX TEMP:  90; 6HR PCP: TRACE;

SAINT JOHNS    MOCLDY    70  53  54 N5        30.19S
6HR MIN TEMP:  69; 6HR MAX TEMP:  85;

WINDOW ROCK    PTCLDY    61  53  75 N5        30.26S
6HR MIN TEMP:  60; 6HR MAX TEMP:  73; 6HR PCP: TRACE;

SHOW LOW       MOCLDY    64  52  63 CALM      30.26F
$$

AZZ023-070700-
GREATER PHOENIX AREA

CITY           SKY/WX    TMP DP  RH WIND       PRES   REMARKS
PHOENIX        PTCLDY    96  53  23 W8        29.84S
6HR MIN TEMP:  95; 6HR MAX TEMP: 104;

BUCKEYE        PTCLDY    88  64  45 CALM      29.86S
LUKE AFB       MOCLDY    91  61  35 SW8       29.84S
DEER VALLEY    PTCLDY    91  55  29 W5        29.87R
6HR MIN TEMP:  91; 6HR MAX TEMP: 102;

SCOTTSDALE     PTCLDY    92  56  29 W3        29.89R
6HR MIN TEMP:  92; 6HR MAX TEMP: 101;

$$

AZZ027-028-070700-
SOUTHWEST MARICOPA COUNTY AND PINAL COUNTY

CITY           SKY/WX    TMP DP  RH WIND       PRES   REMARKS
CASA GRANDE    CLEAR     86  61  42 SW6       29.88F
6HR MIN TEMP:  86; 6HR MAX TEMP:  97;

GILA BEND      CLEAR     87  65  48 SE2       29.85R
6HR MIN TEMP:  85; 6HR MAX TEMP: 105; 6HR PCP: TRACE;

$$

AZZ503-504-507>509-070700-
SOUTHEAST ARIZONA

CITY           SKY/WX    TMP DP  RH WIND       PRES   REMARKS
TUCSON         CLEAR     82  62  50 S8        30.01R
6HR MIN TEMP:  82; 6HR MAX TEMP:  95;

DAVIS-MONTHAN  CLEAR     80  62  55 S9        30.00R
6HR MIN TEMP:  80; 6HR MAX TEMP:  91; 6HR PCP: TRACE;

NOGALES        CLEAR     71  63  75 CALM      30.10F
6HR MIN TEMP:  69; 6HR MAX TEMP:  73; 6HR PCP:  0.07;

SIERRA VISTA   CLEAR     71  62  73 W9        30.16S
6HR MIN TEMP:  64; 6HR MAX TEMP:  73; 6HR PCP:  1.28;

DOUGLAS        PTCLDY    69  63  81 N7        30.10S
6HR MIN TEMP:  69; 6HR MAX TEMP:  76; 6HR PCP:  0.06;

SAFFORD        PTCLDY    82  61  48 NW12      29.97S
6HR MIN TEMP:  82; 6HR MAX TEMP:  97;

$$

AZZ020-021-025-026-031-070700-
SOUTHWEST ARIZONA

CITY           SKY/WX    TMP DP  RH WIND       PRES   REMARKS
YUMA           CLEAR     91  50  24 S5        29.80S
6HR MIN TEMP:  91; 6HR MAX TEMP: 106;

$$

CAZ031-033-041-043-047-048-061-070700-
SOUTHERN CALIFORNIA

CITY           SKY/WX    TMP DP  RH WIND       PRES   REMARKS
DOWNTOWN L.A.  CLOUDY    65  59  81 CALM      30.01R
6HR MIN TEMP:  64; 6HR MAX TEMP:  71;

L.A. AIRPORT   CLOUDY    64  60  87 SW3       30.02R
6HR MIN TEMP:  63; 6HR MAX TEMP:  67;

SAN DIEGO      CLOUDY    67  59  75 NW5       30.03R
6HR MIN TEMP:  67; 6HR MAX TEMP:  70;

BURBANK        CLEAR     64  58  80 SE7       30.00S
6HR MIN TEMP:  64; 6HR MAX TEMP:  76;

ONTARIO        PTCLDY    64  58  80 W6        30.02R
6HR MIN TEMP:  64; 6HR MAX TEMP:  84;

RIVERSIDE        N/A    N/A N/A N/A MISG      30.02R
PALM SPRINGS   CLEAR     88  59  37 NW12      29.84R
6HR MIN TEMP:  88; 6HR MAX TEMP: 105;

EL CENTRO NAS  PTCLDY    90  48  23 CALM      29.79R
6HR MIN TEMP:  90; 6HR MAX TEMP: 107;

IMPERIAL       CLEAR     89  50  26 CALM      29.77R
6HR MIN TEMP:  87; 6HR MAX TEMP: 106;

BLYTHE         CLEAR     97  47  18 S8        29.80R
6HR MIN TEMP:  97; 6HR MAX TEMP: 106; 6HR PCP: TRACE;

NEEDLES        PTCLDY    91  57  31 N16G26    29.86R
6HR MIN TEMP:  91; 6HR MAX TEMP: 109; 6HR PCP: TRACE;

$$

NVZ020-UTZ003-070700-
SOUTHERN NEVADA-UTAH

CITY           SKY/WX    TMP DP  RH WIND       PRES   REMARKS
LAS VEGAS      CLOUDY    82  61  48 SW9       29.93S
6HR MIN TEMP:  77; 6HR MAX TEMP:  98; 6HR PCP:  0.05;

SALT LAKE CITY MOCLDY    74  55  51 SE10      30.05F
6HR MIN TEMP:  74; 6HR MAX TEMP:  82;

$$

NMZ009-TXZ055-070700-
NEW MEXICO-WEST TEXAS

CITY           SKY/WX    TMP DP  RH WIND       PRES   REMARKS
ALBUQUERQUE    CLOUDY    69  57  65 E26G36    30.18R
6HR MIN TEMP:  69; 6HR MAX TEMP:  75; 6HR PCP: TRACE;

EL PASO        PTCLDY    88  52  29 W9        29.98R
6HR MIN TEMP:  88; 6HR MAX TEMP:  96;

$$


........................KEY........................
SKY/WX - SKY CONDITION/WEATHER
TMP    - TEMPERATURE IN FAHRENHEIT
DP     - DEW POINT IN FAHRENHEIT
RH     - RELATIVE HUMIDITY IN PERCENT
WIND   - DIRECTION AND SPEED IN MILES PER HOUR (MPH)
VRB    - VARIABLE WIND DIRECTION
PRES   - MEAN SEA LEVEL PRESSURE IN INCHES OF MERCURY
         F - FALLING PRESSURE   R - RISING PRESSURE
         S - STEADY PRESSURE
VSB    - VISIBILITY IN MILES
HX     - HEAT INDEX IN FAHRENHEIT
WCI    - WIND CHILL INDEX IN FAHRENHEIT
TC     - TEMPERATURE IN CELSIUS WHICH IS ALSO KNOWN AS
         TEMPERATURE IN CENTIGRADE
AFB    - AIR FORCE BASE
         LUKE AFB IS LUKE AIR FORCE BASE
         DAVIS-MONTHAN IS DAVIS-MONTHAN AIR FORCE BASE
NAS    - NAVAL AIR STATION
         EL CENTRO NAS IS EL CENTRO NAVAL AIR STATION
N/A    - NOT AVAILABLE




USA.gov is the U.S. government's official web portal to all federal, state and local government web resources and services.